Location: ???????
(55.8930°N, 38.0586°E)
Time: 09:21:52
(UTC+00:00)

Cosmos 1340 - Pass Details

Date: 14 April 2024
Orbit: 438 x 438 km, 81.2° (Epoch: 19 May)

Event Time Altitude Azimuth Distance (km) Brightness Sun altitude
Rises 01:18:31 0° 342° (NNW) 2,442 6.3 -9.2°
Reaches altitude 10° 01:20:36 10° 338° (NNW) 1,568 5.3 -8.9°
Maximum altitude 01:23:58 56° 260° (W) 536 2.4 -8.5°
Drops below altitude 10° 01:27:18 10° 182° (S) 1,560 4.8 -8.1°
Sets 01:29:22 0° 178° (S) 2,428 5.8 -7.9°
